TimeEDT,TemperatureF,Dew PointF,Humidity,Sea Level PressureIn,VisibilityMPH,Wind Direction,Wind SpeedMPH,Gust SpeedMPH,PrecipitationIn,Events,Conditions,WindDirDegrees,DateUTC
12:54 AM,59.0,44.1,58,30.08,10.0,NW,9.2,-,N/A,,Clear,310,2013-10-04 04:54:00
1:54 AM,57.9,42.1,56,30.08,10.0,NW,6.9,-,N/A,,Clear,310,2013-10-04 05:54:00
2:54 AM,55.9,44.1,64,30.07,10.0,West,6.9,-,N/A,,Scattered Clouds,280,2013-10-04 06:54:00
3:54 AM,57.0,45.0,64,30.07,10.0,WNW,5.8,-,N/A,,Clear,290,2013-10-04 07:54:00
4:54 AM,57.0,46.0,67,30.07,10.0,West,8.1,-,N/A,,Clear,270,2013-10-04 08:54:00
5:54 AM,54.0,46.9,77,30.07,10.0,WSW,6.9,-,N/A,,Clear,250,2013-10-04 09:54:00
6:54 AM,59.0,46.0,62,30.07,10.0,West,3.5,-,N/A,,Overcast,260,2013-10-04 10:54:00
7:54 AM,62.1,46.9,58,30.08,10.0,NW,3.5,-,N/A,,Overcast,320,2013-10-04 11:54:00
8:54 AM,63.0,48.0,58,30.09,10.0,Calm,Calm,-,N/A,,Overcast,0,2013-10-04 12:54:00
9:54 AM,61.0,46.0,58,30.09,10.0,NE,4.6,-,N/A,,Overcast,40,2013-10-04 13:54:00
10:28 AM,55.9,51.1,84,30.11,2.5,NNW,8.1,-,0.10,Rain,Heavy Rain,340,2013-10-04 14:28:00
10:37 AM,55.9,51.1,84,30.10,7.0,Variable,3.5,-,0.11,Rain,Rain,0,2013-10-04 14:37:00
10:54 AM,55.9,52.0,87,30.10,10.0,ENE,3.5,-,0.13,Rain,Light Rain,60,2013-10-04 14:54:00
11:42 AM,57.9,54.0,87,30.09,10.0,Calm,Calm,-,0.00,,Overcast,0,2013-10-04 15:42:00
11:54 AM,57.9,54.0,87,30.10,10.0,NE,4.6,-,0.00,,Overcast,40,2013-10-04 15:54:00
12:54 PM,55.9,52.0,87,30.09,1.5,NE,8.1,26.5,0.04,Rain,Heavy Rain,40,2013-10-04 16:54:00
1:05 PM,55.0,52.0,89,30.08,3.0,East,6.9,-,0.15,Rain,Rain,80,2013-10-04 17:05:00
1:46 PM,57.0,54.0,89,30.07,10.0,ENE,4.6,-,0.19,,Scattered Clouds,60,2013-10-04 17:46:00
1:54 PM,57.9,55.0,90,30.07,10.0,NE,4.6,-,0.19,,Mostly Cloudy,50,2013-10-04 17:54:00
2:43 PM,59.0,55.0,87,30.06,10.0,ENE,4.6,-,N/A,,Scattered Clouds,70,2013-10-04 18:43:00
2:54 PM,59.0,55.0,87,30.06,10.0,East,3.5,-,N/A,,Mostly Cloudy,100,2013-10-04 18:54:00
3:08 PM,60.1,55.0,83,30.06,10.0,NE,4.6,-,N/A,,Overcast,40,2013-10-04 19:08:00
3:54 PM,60.1,55.0,83,30.06,10.0,Calm,Calm,-,N/A,,Overcast,0,2013-10-04 19:54:00
4:54 PM,60.1,55.0,83,30.06,10.0,Calm,Calm,-,N/A,,Mostly Cloudy,0,2013-10-04 20:54:00
5:54 PM,60.1,55.0,83,30.07,10.0,Calm,Calm,-,N/A,,Overcast,0,2013-10-04 21:54:00
6:15 PM,59.0,54.0,83,30.06,10.0,Calm,Calm,-,N/A,,Scattered Clouds,0,2013-10-04 22:15:00
6:54 PM,57.9,55.0,90,30.07,10.0,NNW,3.5,-,N/A,,Clear,340,2013-10-04 22:54:00
7:54 PM,57.0,55.0,93,30.07,10.0,Calm,Calm,-,N/A,,Mostly Cloudy,0,2013-10-04 23:54:00
8:25 PM,57.0,55.0,93,30.07,10.0,Calm,Calm,-,N/A,,Mostly Cloudy,0,2013-10-05 00:25:00
8:54 PM,55.9,54.0,93,30.08,10.0,Calm,Calm,-,N/A,,Mostly Cloudy,0,2013-10-05 00:54:00
9:54 PM,57.0,55.0,93,30.08,10.0,NNE,3.5,-,N/A,,Overcast,30,2013-10-05 01:54:00
10:36 PM,57.9,55.0,90,30.08,10.0,Calm,Calm,-,N/A,,Overcast,0,2013-10-05 02:36:00
10:54 PM,57.0,55.9,96,30.09,10.0,Calm,Calm,-,N/A,,Overcast,0,2013-10-05 02:54:00
11:12 PM,57.0,55.0,93,30.08,10.0,Calm,Calm,-,N/A,,Overcast,0,2013-10-05 03:12:00
11:54 PM,55.9,55.0,97,30.08,10.0,SW,3.5,-,N/A,,Overcast,230,2013-10-05 03:54:00